Regional Weather Roundup
Issued by NWS Goodland, KS

Home | Current Version | Previous Version | Graphics & Text | Print | Product List | Glossary On
Versions: 1 2 3 4 5 6 7 8 9 10 11 12 13 14 15 16 17 18 19 20 21 22 23 24 25 26 27 28 29 30 31 32 33 34 35 36 37 38 39 40 41 42 43 44 45 46 47 48 49 50
000
ASUS43 KGLD 212159
RWRGLD

GOODLAND FORECAST AREA HOURLY WEATHER ROUNDUP
NATIONAL WEATHER SERVICE GOODLAND KS
300 PM MST SAT JAN 21 2017

...OFFICIAL OBSERVATIONS...

CITY           SKY/WX    TMP DP  RH WIND       PRES   REMARKS
GOODLAND KS    MOSUNNY   46  34  62 E10       29.38R
HILL CITY KS   CLOUDY    53  36  52 E10       29.41S
IMPERIAL NEB   CLOUDY    47  27  45 NE5       29.43R
MCCOOK NEB     SUNNY     52  29  41 N3        29.42S
AKRON CO       SUNNY     42  23  46 SE13      29.40R
BURLINGTON CO  MOSUNNY   44  35  70 NE10      29.38R
LIMON CO       CLOUDY    40  25  55 SE12      29.38R
$$

...UNOFFICIAL OBSERVATIONS...

CITY           SKY/WX    TMP DP  RH WIND       PRES   REMARKS
LENORA KS        N/A     50  32  50 NE5         N/A
NORTON KS      SUNNY     48  30  49 NE5       29.42R
SHARON SPRINGS   N/A     47  37  69 E14         N/A
TRENTON NEB      N/A     49  32  52 CALM        N/A
KIT CARSON CO    N/A     42  35  75 MISG        N/A
YUMA CO        FAIR      41  27  56 E9        29.40R
$$




USA.gov is the U.S. government's official web portal to all federal, state and local government web resources and services.